Location: Dreilärchen
(47.9312°N, 8.6113°E)
Time: 20:16:20
(UTC+00:00)

Helios 1B rocket - Pass Details

Date: 26 May 2022
Orbit: 569 x 578 km, 98.2° (Epoch: 02 July)

Event Time Altitude Azimuth Distance (km) Brightness Sun altitude
Rises 02:38:14 0° 15° (NNE) 2,786 7.1 -8.3°
Reaches altitude 10° 02:40:23 10° 17° (NNE) 1,883 6.1 -8.0°
Maximum altitude 02:44:28 77° 103° (ESE) 591 2.6 -7.5°
Drops below altitude 10° 02:48:31 10° 190° (S) 1,868 4.6 -7.0°
Enters shadow 02:49:55 - 191° (SSW) 2,456 5.1 -6.8°
